owner,sensor,date,latitude,longitude,vertical_datum,wind_speed,wind_to_direction,wind_speed_of_gust,qcFlag 
TABS,ioos:station:wmo:42046:1,2009-05-01T00:00:00Z,27.8903,-94.0367,4.0,5.527503957,139.7700331,7.32,'11111222,11111222,11111222' 
TABS,ioos:station:wmo:42046:1,2009-05-01T00:30:00Z,27.8903,-94.0367,4.0,5.743735718,140.1564162,7.27,'11111222,11111222,11111222' 
TABS,ioos:station:wmo:42046:1,2009-05-01T01:00:00Z,27.8903,-94.0367,4.0,5.906005418,143.052789,7.83,'11111222,11111222,11111222' 
TABS,ioos:station:wmo:42046:1,2009-05-01T01:30:00Z,27.8903,-94.0367,4.0,5.909661581,141.1133705,7.4,'11111222,11111222,11111222' 
TABS,ioos:station:wmo:42046:1,2009-05-01T02:00:00Z,27.8903,-94.0367,4.0,6.148105399,143.4658934,7.45,'11111222,11111222,11111222' 
TABS,ioos:station:wmo:42046:1,2009-05-01T02:30:00Z,27.8903,-94.0367,4.0,6.558239093,140.6309853,8.21,'11111222,11111222,11111222' 
TABS,ioos:station:wmo:42046:1,2009-05-01T03:00:00Z,27.8903,-94.0367,4.0,6.518420054,142.4799394,8.15,'11111222,11111222,11111222' 
TABS,ioos:station:wmo:42046:1,2009-05-01T03:30:00Z,27.8903,-94.0367,4.0,5.585158906,140.6675881,7.08,'11111222,11111222,11111222' 
TABS,ioos:station:wmo:42046:1,2009-05-01T04:00:00Z,27.8903,-94.0367,4.0,6.428187925,141.0620903,8.01,'11111222,11111222,11111222' 
TABS,ioos:station:wmo:42046:1,2009-05-01T04:30:00Z,27.8903,-94.0367,4.0,7.044125212,142.7887766,9.22,'11111222,11111222,11111222' 
TABS,ioos:station:wmo:42046:1,2009-05-01T05:00:00Z,27.8903,-94.0367,4.0,6.671761387,141.2063738,8.42,'11111222,11111222,11111222' 
TABS,ioos:station:wmo:42046:1,2009-05-01T05:30:00Z,27.8903,-94.0367,4.0,6.868420488,143.764396,8.57,'11111222,11111222,11111222' 
TABS,ioos:station:wmo:42046:1,2009-05-01T06:00:00Z,27.8903,-94.0367,4.0,6.604490896,149.3192083,8.54,'11111222,11111222,11111222' 
TABS,ioos:station:wmo:42046:1,2009-05-01T06:30:00Z,27.8903,-94.0367,4.0,7.019665234,148.5745876,8.8,'11111222,11111222,11111222' 
TABS,ioos:station:wmo:42046:1,2009-05-01T07:00:00Z,27.8903,-94.0367,4.0,6.700835769,146.0730722,8.47,'11111222,11111222,11111222' 
TABS,ioos:station:wmo:42046:1,2009-05-01T07:30:00Z,27.8903,-94.0367,4.0,7.388619628,146.202685,9.5,'11111222,11111222,11111222' 
TABS,ioos:station:wmo:42046:1,2009-05-01T08:00:00Z,27.8903,-94.0367,4.0,6.832525155,148.8927123,8.97,'11111222,11111222,11111222' 
TABS,ioos:station:wmo:42046:1,2009-05-01T08:30:00Z,27.8903,-94.0367,4.0,7.694153625,152.1030047,9.36,'11111222,11111222,11111222' 
TABS,ioos:station:wmo:42046:1,2009-05-01T09:00:00Z,27.8903,-94.0367,4.0,7.011889902,148.0555324,8.62,'11111222,11111222,11111222' 
TABS,ioos:station:wmo:42046:1,2009-05-01T09:30:00Z,27.8903,-94.0367,4.0,6.88332042,154.2542067,8.66,'11111222,11111222,11111222' 
TABS,ioos:station:wmo:42046:1,2009-05-01T10:00:00Z,27.8903,-94.0367,4.0,6.998206913,150.6514453,8.68,'11111222,11111222,11111222' 
TABS,ioos:station:wmo:42046:1,2009-05-01T10:30:00Z,27.8903,-94.0367,4.0,6.881351611,145.7790802,8.32,'11111222,11111222,11111222' 
TABS,ioos:station:wmo:42046:1,2009-05-01T11:00:00Z,27.8903,-94.0367,4.0,7.338971318,153.0162479,9.48,'11111222,11111222,11111222' 
TABS,ioos:station:wmo:42046:1,2009-05-01T11:30:00Z,27.8903,-94.0367,4.0,6.668882965,151.1292601,8.53,'11111222,11111222,11111222' 
TABS,ioos:station:wmo:42046:1,2009-05-01T12:00:00Z,27.8903,-94.0367,4.0,6.709135563,154.3900604,8.3,'11111222,11111222,11111222' 
TABS,ioos:station:wmo:42046:1,2009-05-01T12:30:00Z,27.8903,-94.0367,4.0,6.413867788,159.5592227,8.59,'11111222,11111222,11111222' 
TABS,ioos:station:wmo:42046:1,2009-05-01T13:00:00Z,27.8903,-94.0367,4.0,6.691427351,156.5768102,8.22,'11111222,11111222,11111222' 
TABS,ioos:station:wmo:42046:1,2009-05-01T13:30:00Z,27.8903,-94.0367,4.0,6.438485847,157.5378412,7.85,'11111222,11111222,11111222' 
TABS,ioos:station:wmo:42046:1,2009-05-01T14:00:00Z,27.8903,-94.0367,4.0,6.104506532,153.6450946,7.85,'11111222,11111222,11111222' 
TABS,ioos:station:wmo:42046:1,2009-05-01T14:30:00Z,27.8903,-94.0367,4.0,5.731884507,151.5573483,7.57,'11111222,11111222,11111222' 
TABS,ioos:station:wmo:42046:1,2009-05-01T15:00:00Z,27.8903,-94.0367,4.0,5.519139426,154.2244956,7.15,'11111222,11111222,11111222' 
TABS,ioos:station:wmo:42046:1,2009-05-01T15:30:00Z,27.8903,-94.0367,4.0,5.467037589,157.7512388,7.0,'11111222,11111222,11111222' 
TABS,ioos:station:wmo:42046:1,2009-05-01T16:00:00Z,27.8903,-94.0367,4.0,5.406782777,155.7580264,6.84,'11111222,11111222,11111222' 
TABS,ioos:station:wmo:42046:1,2009-05-01T16:30:00Z,27.8903,-94.0367,4.0,5.440147057,148.5307772,6.9,'11111222,11111222,11111222' 
TABS,ioos:station:wmo:42046:1,2009-05-01T17:00:00Z,27.8903,-94.0367,4.0,5.855749312,149.9762652,7.61,'11111222,11111222,11111222' 
TABS,ioos:station:wmo:42046:1,2009-05-01T17:30:00Z,27.8903,-94.0367,4.0,5.773820226,150.1938567,7.07,'11111222,11111222,11111222' 
TABS,ioos:station:wmo:42046:1,2009-05-01T18:00:00Z,27.8903,-94.0367,4.0,5.905294235,154.9540682,7.28,'11111222,11111222,11111222' 
TABS,ioos:station:wmo:42046:1,2009-05-01T18:30:00Z,27.8903,-94.0367,4.0,5.243290951,156.2707756,6.55,'11111222,11111222,11111222' 
TABS,ioos:station:wmo:42046:1,2009-05-01T19:00:00Z,27.8903,-94.0367,4.0,4.869630376,150.0656787,6.0,'11111222,11111222,11111222' 
TABS,ioos:station:wmo:42046:1,2009-05-01T19:30:00Z,27.8903,-94.0367,4.0,4.473935628,146.9495762,5.71,'11111222,11111222,11111222' 
TABS,ioos:station:wmo:42046:1,2009-05-01T20:00:00Z,27.8903,-94.0367,4.0,4.76055669,145.0082721,6.26,'11111222,11111222,11111222' 
TABS,ioos:station:wmo:42046:1,2009-05-01T20:30:00Z,27.8903,-94.0367,4.0,5.383391125,146.1331105,6.65,'11111222,11111222,11111222' 
TABS,ioos:station:wmo:42046:1,2009-05-01T21:00:00Z,27.8903,-94.0367,4.0,5.142859127,144.177694,6.56,'11111222,11111222,11111222' 
TABS,ioos:station:wmo:42046:1,2009-05-01T21:30:00Z,27.8903,-94.0367,4.0,4.728223768,148.932617,6.27,'11111222,11111222,11111222' 
TABS,ioos:station:wmo:42046:1,2009-05-01T22:00:00Z,27.8903,-94.0367,4.0,4.692653833,148.2408046,5.99,'11111222,11111222,11111222' 
TABS,ioos:station:wmo:42046:1,2009-05-01T22:30:00Z,27.8903,-94.0367,4.0,4.642854725,148.2957669,5.77,'11111222,11111222,11111222' 
TABS,ioos:station:wmo:42046:1,2009-05-01T23:00:00Z,27.8903,-94.0367,4.0,5.420857866,144.9909544,7.17,'11111222,11111222,11111222' 
TABS,ioos:station:wmo:42046:1,2009-05-01T23:30:00Z,27.8903,-94.0367,4.0,5.445374184,138.0522005,6.84,'11111222,11111222,11111222' 
TABS,ioos:station:wmo:42046:1,2009-05-02T00:00:00Z,27.8903,-94.0367,4.0,5.749130369,141.9942043,7.36,'11111222,11111222,11111222' 
TABS,ioos:station:wmo:42046:1,2009-05-02T00:30:00Z,27.8903,-94.0367,4.0,5.738466694,138.532602,7.07,'11111222,11111222,11111222' 
TABS,ioos:station:wmo:42046:1,2009-05-02T01:00:00Z,27.8903,-94.0367,4.0,5.902745124,139.6727475,7.09,'11111222,11111222,11111222' 
TABS,ioos:station:wmo:42046:1,2009-05-02T01:30:00Z,27.8903,-94.0367,4.0,6.311140943,144.2198838,7.64,'11111222,11111222,11111222' 
TABS,ioos:station:wmo:42046:1,2009-05-02T02:00:00Z,27.8903,-94.0367,4.0,6.292296878,153.4759432,7.97,'11111222,11111222,11111222' 
TABS,ioos:station:wmo:42046:1,2009-05-02T02:30:00Z,27.8903,-94.0367,4.0,6.514967383,155.323405,8.11,'11111222,11111222,11111222' 
TABS,ioos:station:wmo:42046:1,2009-05-02T03:00:00Z,27.8903,-94.0367,4.0,7.214055725,154.1100924,9.41,'11111222,11111222,11111222' 
TABS,ioos:station:wmo:42046:1,2009-05-02T03:30:00Z,27.8903,-94.0367,4.0,6.591934466,153.5129631,8.45,'11111222,11111222,11111222' 
TABS,ioos:station:wmo:42046:1,2009-05-02T04:00:00Z,27.8903,-94.0367,4.0,6.896404861,154.0297074,9.04,'11111222,11111222,11111222' 
TABS,ioos:station:wmo:42046:1,2009-05-02T04:30:00Z,27.8903,-94.0367,4.0,7.327298274,161.0460231,9.38,'11111222,11111222,11111222' 
TABS,ioos:station:wmo:42046:1,2009-05-02T05:00:00Z,27.8903,-94.0367,4.0,8.380990395,162.430079,10.44,'11111222,11111222,11111222' 
TABS,ioos:station:wmo:42046:1,2009-05-02T05:30:00Z,27.8903,-94.0367,4.0,7.832368735,164.2960106,9.68,'11111222,11111222,11111222' 
TABS,ioos:station:wmo:42046:1,2009-05-02T06:00:00Z,27.8903,-94.0367,4.0,7.719274577,168.3409451,9.68,'11111222,11111222,11111222' 
TABS,ioos:station:wmo:42046:1,2009-05-02T06:30:00Z,27.8903,-94.0367,4.0,7.646345532,170.8951566,10.03,'11111222,11111222,11111222' 
TABS,ioos:station:wmo:42046:1,2009-05-02T07:00:00Z,27.8903,-94.0367,4.0,7.148433395,168.7060234,9.34,'11111222,11111222,11111222' 
TABS,ioos:station:wmo:42046:1,2009-05-02T07:30:00Z,27.8903,-94.0367,4.0,7.981635171,172.8752108,10.71,'11111222,11111222,11111222' 
TABS,ioos:station:wmo:42046:1,2009-05-02T08:00:00Z,27.8903,-94.0367,4.0,6.267096616,171.0038406,7.89,'11111222,11111222,11111222' 
TABS,ioos:station:wmo:42046:1,2009-05-02T08:30:00Z,27.8903,-94.0367,4.0,7.036263213,165.4307569,8.93,'11111222,11111222,11111222' 
TABS,ioos:station:wmo:42046:1,2009-05-02T09:00:00Z,27.8903,-94.0367,4.0,7.38677873,163.1598467,8.92,'11111222,11111222,11111222' 
TABS,ioos:station:wmo:42046:1,2009-05-02T09:30:00Z,27.8903,-94.0367,4.0,7.880418771,163.8650988,10.1,'11111222,11111222,11111222' 
TABS,ioos:station:wmo:42046:1,2009-05-02T10:00:00Z,27.8903,-94.0367,4.0,6.863963869,160.2453621,8.85,'11111222,11111222,11111222' 
TABS,ioos:station:wmo:42046:1,2009-05-02T10:30:00Z,27.8903,-94.0367,4.0,7.214332956,158.4495649,9.29,'11111222,11111222,11111222' 
TABS,ioos:station:wmo:42046:1,2009-05-02T11:00:00Z,27.8903,-94.0367,4.0,6.178389758,156.1319363,7.83,'11111222,11111222,11111222' 
TABS,ioos:station:wmo:42046:1,2009-05-02T11:30:00Z,27.8903,-94.0367,4.0,6.760621273,149.4144221,8.64,'11111222,11111222,11111222' 
TABS,ioos:station:wmo:42046:1,2009-05-02T12:00:00Z,27.8903,-94.0367,4.0,7.158051411,150.1759732,9.2,'11111222,11111222,11111222' 
TABS,ioos:station:wmo:42046:1,2009-05-02T12:30:00Z,27.8903,-94.0367,4.0,7.841887528,148.1343073,10.2,'11111222,11111222,11111222' 
TABS,ioos:station:wmo:42046:1,2009-05-02T13:00:00Z,27.8903,-94.0367,4.0,7.979279416,151.3153185,9.88,'11111222,11111222,11111222' 
TABS,ioos:station:wmo:42046:1,2009-05-02T13:30:00Z,27.8903,-94.0367,4.0,7.661103054,152.9000762,9.7,'11111222,11111222,11111222' 
TABS,ioos:station:wmo:42046:1,2009-05-02T14:00:00Z,27.8903,-94.0367,4.0,8.092688058,157.9359091,10.19,'11111222,11111222,11111222' 
TABS,ioos:station:wmo:42046:1,2009-05-02T14:30:00Z,27.8903,-94.0367,4.0,8.060397013,154.5797102,10.31,'11111222,11111222,11111222' 
TABS,ioos:station:wmo:42046:1,2009-05-02T15:00:00Z,27.8903,-94.0367,4.0,8.290385998,155.1044548,10.26,'11111222,11111222,11111222' 
TABS,ioos:station:wmo:42046:1,2009-05-02T15:30:00Z,27.8903,-94.0367,4.0,9.000288884,154.7449334,12.02,'11111222,11111222,11111222' 
TABS,ioos:station:wmo:42046:1,2009-05-02T16:00:00Z,27.8903,-94.0367,4.0,8.152705073,153.4037921,10.03,'11111222,11111222,11111222' 
TABS,ioos:station:wmo:42046:1,2009-05-02T16:30:00Z,27.8903,-94.0367,4.0,7.088448349,155.4961073,8.81,'11111222,11111222,11111222' 
TABS,ioos:station:wmo:42046:1,2009-05-02T17:00:00Z,27.8903,-94.0367,4.0,7.379159844,153.0879793,9.27,'11111222,11111222,11111222' 
TABS,ioos:station:wmo:42046:1,2009-05-02T17:30:00Z,27.8903,-94.0367,4.0,8.194858144,156.9393818,10.5,'11111222,11111222,11111222' 
TABS,ioos:station:wmo:42046:1,2009-05-02T18:00:00Z,27.8903,-94.0367,4.0,8.074633119,157.5004806,10.28,'11111222,11111222,11111222' 
TABS,ioos:station:wmo:42046:1,2009-05-02T18:30:00Z,27.8903,-94.0367,4.0,6.949244563,157.4945583,8.8,'11111222,11111222,11111222' 
TABS,ioos:station:wmo:42046:1,2009-05-02T19:00:00Z,27.8903,-94.0367,4.0,6.896673111,154.2154641,8.87,'11111222,11111222,11111222' 
TABS,ioos:station:wmo:42046:1,2009-05-02T19:30:00Z,27.8903,-94.0367,4.0,7.345372693,148.755602,9.13,'11111222,11111222,11111222' 
TABS,ioos:station:wmo:42046:1,2009-05-02T20:00:00Z,27.8903,-94.0367,4.0,7.244984472,149.931698,8.89,'11111222,11111222,11111222' 
TABS,ioos:station:wmo:42046:1,2009-05-02T20:30:00Z,27.8903,-94.0367,4.0,7.15508211,149.4210551,9.41,'11111222,11111222,11111222' 
TABS,ioos:station:wmo:42046:1,2009-05-02T21:00:00Z,27.8903,-94.0367,4.0,7.201284608,149.2684912,8.71,'11111222,11111222,11111222' 
TABS,ioos:station:wmo:42046:1,2009-05-02T21:30:00Z,27.8903,-94.0367,4.0,7.394383003,145.858915,9.22,'11111222,11111222,11111222' 
TABS,ioos:station:wmo:42046:1,2009-05-02T22:00:00Z,27.8903,-94.0367,4.0,7.602433821,145.8294596,9.33,'11111222,11111222,11111222' 
TABS,ioos:station:wmo:42046:1,2009-05-02T22:30:00Z,27.8903,-94.0367,4.0,7.377838437,145.7717447,9.42,'11111222,11111222,11111222' 
TABS,ioos:station:wmo:42046:1,2009-05-02T23:00:00Z,27.8903,-94.0367,4.0,7.288765328,146.2448158,9.16,'11111222,11111222,11111222' 
TABS,ioos:station:wmo:42046:1,2009-05-02T23:30:00Z,27.8903,-94.0367,4.0,7.717985488,147.6486615,9.97,'11111222,11111222,11111222' 
TABS,ioos:station:wmo:42046:1,2009-05-03T00:00:00Z,27.8903,-94.0367,4.0,7.769407957,151.2250233,9.49,'11111222,11111222,11111222' 
TABS,ioos:station:wmo:42046:1,2009-05-03T00:30:00Z,27.8903,-94.0367,4.0,7.878356428,154.996556,10.06,'11111222,11111222,11111222' 
TABS,ioos:station:wmo:42046:1,2009-05-03T01:00:00Z,27.8903,-94.0367,4.0,7.04049004,155.7651006,8.96,'11111222,11111222,11111222' 
TABS,ioos:station:wmo:42046:1,2009-05-03T01:30:00Z,27.8903,-94.0367,4.0,6.979233482,157.3298787,9.25,'11111222,11111222,11111222' 
TABS,ioos:station:wmo:42046:1,2009-05-03T02:00:00Z,27.8903,-94.0367,4.0,6.623360174,159.4037145,8.31,'11111222,11111222,11111222' 
TABS,ioos:station:wmo:42046:1,2009-05-03T02:30:00Z,27.8903,-94.0367,4.0,7.09,158.5740145,9.1,'11111222,11111222,11111222' 
TABS,ioos:station:wmo:42046:1,2009-05-03T03:00:00Z,27.8903,-94.0367,4.0,7.275713023,160.0709746,9.04,'11111222,11111222,11111222' 
TABS,ioos:station:wmo:42046:1,2009-05-03T03:30:00Z,27.8903,-94.0367,4.0,7.30802983,161.4909271,9.08,'11111222,11111222,11111222' 
TABS,ioos:station:wmo:42046:1,2009-05-03T04:00:00Z,27.8903,-94.0367,4.0,7.541472005,158.7772912,9.54,'11111222,11111222,11111222' 
TABS,ioos:station:wmo:42046:1,2009-05-03T04:30:00Z,27.8903,-94.0367,4.0,7.19102218,161.5149128,9.76,'11111222,11111222,11111222' 
TABS,ioos:station:wmo:42046:1,2009-05-03T05:00:00Z,27.8903,-94.0367,4.0,7.06419139,168.4039877,9.08,'11111222,11111222,11111222' 
TABS,ioos:station:wmo:42046:1,2009-05-03T05:30:00Z,27.8903,-94.0367,4.0,7.68400937,163.8295215,9.98,'11111222,11111222,11111222' 
TABS,ioos:station:wmo:42046:1,2009-05-03T06:00:00Z,27.8903,-94.0367,4.0,7.381761307,164.1188216,9.61,'11111222,11111222,11111222' 
TABS,ioos:station:wmo:42046:1,2009-05-03T06:30:00Z,27.8903,-94.0367,4.0,7.152908499,166.6634033,9.51,'11111222,11111222,11111222' 
TABS,ioos:station:wmo:42046:1,2009-05-03T07:00:00Z,27.8903,-94.0367,4.0,7.875087301,162.4856376,10.15,'11111222,11111222,11111222' 
TABS,ioos:station:wmo:42046:1,2009-05-03T07:30:00Z,27.8903,-94.0367,4.0,6.293011997,161.8532201,8.43,'11111222,11111222,11111222' 
TABS,ioos:station:wmo:42046:1,2009-05-03T08:00:00Z,27.8903,-94.0367,4.0,6.888809767,163.6435641,9.28,'11111222,11111222,11111222' 
TABS,ioos:station:wmo:42046:1,2009-05-03T08:30:00Z,27.8903,-94.0367,4.0,7.043869675,165.1945798,9.01,'11111222,11111222,11111222' 
TABS,ioos:station:wmo:42046:1,2009-05-03T09:00:00Z,27.8903,-94.0367,4.0,6.986401076,167.8539311,8.94,'11111222,11111222,11111222' 
TABS,ioos:station:wmo:42046:1,2009-05-03T09:30:00Z,27.8903,-94.0367,4.0,7.03463574,170.5914702,8.87,'11111222,11111222,11111222' 
TABS,ioos:station:wmo:42046:1,2009-05-03T10:00:00Z,27.8903,-94.0367,4.0,7.208363198,171.5441401,9.09,'11111222,11111222,11111222' 
TABS,ioos:station:wmo:42046:1,2009-05-03T10:30:00Z,27.8903,-94.0367,4.0,6.88158412,171.7288311,9.05,'11111222,11111222,11111222' 
TABS,ioos:station:wmo:42046:1,2009-05-03T11:00:00Z,27.8903,-94.0367,4.0,8.03652288,164.9264619,10.21,'11111222,11111222,11111222' 
TABS,ioos:station:wmo:42046:1,2009-05-03T11:30:00Z,27.8903,-94.0367,4.0,9.053601493,163.7071356,12.12,'11111222,11111222,11111222' 
TABS,ioos:station:wmo:42046:1,2009-05-03T12:00:00Z,27.8903,-94.0367,4.0,10.02486908,162.1075186,12.83,'11111222,11111222,11111222' 
TABS,ioos:station:wmo:42046:1,2009-05-03T12:30:00Z,27.8903,-94.0367,4.0,10.28181404,164.5447426,12.85,'11111222,11111222,11111222' 
TABS,ioos:station:wmo:42046:1,2009-05-03T13:00:00Z,27.8903,-94.0367,4.0,10.45803997,164.7547376,13.35,'11111222,11111222,11111222' 
TABS,ioos:station:wmo:42046:1,2009-05-03T13:30:00Z,27.8903,-94.0367,4.0,10.65319201,166.7597215,13.49,'11111222,11111222,11111222' 
TABS,ioos:station:wmo:42046:1,2009-05-03T14:00:00Z,27.8903,-94.0367,4.0,10.14909848,167.5387882,13.45,'11111222,11111222,11111222' 
TABS,ioos:station:wmo:42046:1,2009-05-03T14:30:00Z,27.8903,-94.0367,4.0,9.698999948,171.4022816,12.21,'11111222,11111222,11111222' 
TABS,ioos:station:wmo:42046:1,2009-05-03T15:00:00Z,27.8903,-94.0367,4.0,9.321400109,168.6782498,11.8,'11111222,11111222,11111222' 
TABS,ioos:station:wmo:42046:1,2009-05-03T15:30:00Z,27.8903,-94.0367,4.0,9.091891992,169.8644844,11.04,'11111222,11111222,11111222' 
TABS,ioos:station:wmo:42046:1,2009-05-03T16:00:00Z,27.8903,-94.0367,4.0,8.199231671,169.8141418,10.35,'11111222,11111222,11111222' 
TABS,ioos:station:wmo:42046:1,2009-05-03T16:30:00Z,27.8903,-94.0367,4.0,3.891580656,184.4214895,7.09,'11111222,11111222,11111222' 
TABS,ioos:station:wmo:42046:1,2009-05-03T17:00:00Z,27.8903,-94.0367,4.0,3.651533924,184.555352,5.07,'11111222,11111222,11111222' 
TABS,ioos:station:wmo:42046:1,2009-05-03T17:30:00Z,27.8903,-94.0367,4.0,2.490321264,180.9205433,3.44,'11111222,11111222,11111222' 
TABS,ioos:station:wmo:42046:1,2009-05-03T18:00:00Z,27.8903,-94.0367,4.0,1.732887763,183.3084163,2.7,'11111222,11111222,11111222' 
TABS,ioos:station:wmo:42046:1,2009-05-03T18:30:00Z,27.8903,-94.0367,4.0,2.274840654,163.3975031,3.18,'11111222,11111222,11111222' 
TABS,ioos:station:wmo:42046:1,2009-05-03T19:00:00Z,27.8903,-94.0367,4.0,2.857078928,165.8180859,5.08,'11111222,11111222,11111222' 
TABS,ioos:station:wmo:42046:1,2009-05-03T19:30:00Z,27.8903,-94.0367,4.0,3.374270291,162.0485743,4.55,'11111222,11111222,11111222' 
TABS,ioos:station:wmo:42046:1,2009-05-03T20:00:00Z,27.8903,-94.0367,4.0,3.28975683,151.097921,4.36,'11111222,11111222,11111222' 
TABS,ioos:station:wmo:42046:1,2009-05-03T20:30:00Z,27.8903,-94.0367,4.0,3.440755731,148.0655067,4.55,'11111222,11111222,11111222' 
TABS,ioos:station:wmo:42046:1,2009-05-03T21:00:00Z,27.8903,-94.0367,4.0,3.378535186,147.2039237,4.87,'11111222,11111222,11111222' 
TABS,ioos:station:wmo:42046:1,2009-05-03T21:30:00Z,27.8903,-94.0367,4.0,3.66772409,150.4297847,4.88,'11111222,11111222,11111222' 
TABS,ioos:station:wmo:42046:1,2009-05-03T22:00:00Z,27.8903,-94.0367,4.0,4.082597213,146.388069,5.66,'11111222,11111222,11111222' 
TABS,ioos:station:wmo:42046:1,2009-05-03T22:30:00Z,27.8903,-94.0367,4.0,2.651490147,146.0704924,3.81,'11111222,11111222,11111222' 
TABS,ioos:station:wmo:42046:1,2009-05-03T23:00:00Z,27.8903,-94.0367,4.0,2.515889505,149.1536952,4.62,'11111222,11111222,11111222' 
TABS,ioos:station:wmo:42046:1,2009-05-03T23:30:00Z,27.8903,-94.0367,4.0,2.849438541,152.1761791,4.4,'11111222,11111222,11111222' 
TABS,ioos:station:wmo:42046:1,2009-05-04T00:00:00Z,27.8903,-94.0367,4.0,4.060603403,144.1181571,5.27,'11111222,11111222,11111222' 
TABS,ioos:station:wmo:42046:1,2009-05-04T00:30:00Z,27.8903,-94.0367,4.0,4.066017708,143.2994954,5.18,'11111222,11111222,11111222' 
TABS,ioos:station:wmo:42046:1,2009-05-04T01:00:00Z,27.8903,-94.0367,4.0,4.725473521,144.5612798,6.08,'11111222,11111222,11111222' 
TABS,ioos:station:wmo:42046:1,2009-05-04T01:30:00Z,27.8903,-94.0367,4.0,4.795216366,144.4209462,6.02,'11111222,11111222,11111222' 
TABS,ioos:station:wmo:42046:1,2009-05-04T02:00:00Z,27.8903,-94.0367,4.0,4.72076265,145.7042974,6.22,'11111222,11111222,11111222' 
TABS,ioos:station:wmo:42046:1,2009-05-04T02:30:00Z,27.8903,-94.0367,4.0,4.613415221,148.6531411,5.73,'11111222,11111222,11111222' 
TABS,ioos:station:wmo:42046:1,2009-05-04T03:00:00Z,27.8903,-94.0367,4.0,4.45048312,150.6705773,5.86,'11111222,11111222,11111222' 
TABS,ioos:station:wmo:42046:1,2009-05-04T03:30:00Z,27.8903,-94.0367,4.0,4.118956178,152.999758,5.22,'11111222,11111222,11111222' 
TABS,ioos:station:wmo:42046:1,2009-05-04T04:00:00Z,27.8903,-94.0367,4.0,3.966875345,153.8227847,5.19,'11111222,11111222,11111222' 
TABS,ioos:station:wmo:42046:1,2009-05-04T04:30:00Z,27.8903,-94.0367,4.0,4.265512865,157.824702,5.8,'11111222,11111222,11111222' 
TABS,ioos:station:wmo:42046:1,2009-05-04T05:00:00Z,27.8903,-94.0367,4.0,4.329491887,160.8538541,5.92,'11111222,11111222,11111222' 
TABS,ioos:station:wmo:42046:1,2009-05-04T05:30:00Z,27.8903,-94.0367,4.0,4.74802064,162.9773698,5.94,'11111222,11111222,11111222' 
TABS,ioos:station:wmo:42046:1,2009-05-04T06:00:00Z,27.8903,-94.0367,4.0,5.532494916,162.9736618,7.46,'11111222,11111222,11111222' 
TABS,ioos:station:wmo:42046:1,2009-05-04T06:30:00Z,27.8903,-94.0367,4.0,4.685904395,169.6735153,5.82,'11111222,11111222,11111222' 
TABS,ioos:station:wmo:42046:1,2009-05-04T07:00:00Z,27.8903,-94.0367,4.0,4.466452731,176.9200075,5.64,'11111222,11111222,11111222' 
TABS,ioos:station:wmo:42046:1,2009-05-04T07:30:00Z,27.8903,-94.0367,4.0,3.540014124,187.4664906,4.81,'11111222,11111222,11111222' 
TABS,ioos:station:wmo:42046:1,2009-05-04T08:00:00Z,27.8903,-94.0367,4.0,2.160856312,196.6740186,3.01,'11111222,11111222,11111222' 
TABS,ioos:station:wmo:42046:1,2009-05-04T08:30:00Z,27.8903,-94.0367,4.0,1.297690256,204.5902701,1.93,'11111222,11111222,11111222' 
TABS,ioos:station:wmo:42046:1,2009-05-04T09:00:00Z,27.8903,-94.0367,4.0,0.980306075,198.4351162,1.62,'11111222,11111222,11111222' 
TABS,ioos:station:wmo:42046:1,2009-05-04T09:30:00Z,27.8903,-94.0367,4.0,1.135649594,192.2006507,1.91,'11111222,11111222,11111222' 
TABS,ioos:station:wmo:42046:1,2009-05-04T10:00:00Z,27.8903,-94.0367,4.0,1.397032569,174.2488218,2.2,'11111222,11111222,11111222' 
TABS,ioos:station:wmo:42046:1,2009-05-04T10:30:00Z,27.8903,-94.0367,4.0,1.619197332,160.8939021,2.26,'11111222,11111222,11111222' 
TABS,ioos:station:wmo:42046:1,2009-05-04T11:00:00Z,27.8903,-94.0367,4.0,1.527776162,169.0580506,2.36,'11111222,11111222,11111222' 
TABS,ioos:station:wmo:42046:1,2009-05-04T11:30:00Z,27.8903,-94.0367,4.0,2.641703996,164.859262,3.32,'11111222,11111222,11111222' 
TABS,ioos:station:wmo:42046:1,2009-05-04T12:00:00Z,27.8903,-94.0367,4.0,4.145986011,168.3108686,5.14,'11111222,11111222,11111222' 
TABS,ioos:station:wmo:42046:1,2009-05-04T12:30:00Z,27.8903,-94.0367,4.0,2.717517249,170.4685872,3.56,'11111222,11111222,11111222' 
TABS,ioos:station:wmo:42046:1,2009-05-04T13:00:00Z,27.8903,-94.0367,4.0,3.816975242,172.0187261,4.81,'11111222,11111222,11111222' 
TABS,ioos:station:wmo:42046:1,2009-05-04T13:30:00Z,27.8903,-94.0367,4.0,3.388288654,170.3155121,4.28,'11111222,11111222,11111222' 
TABS,ioos:station:wmo:42046:1,2009-05-04T14:00:00Z,27.8903,-94.0367,4.0,3.086486676,176.28493,4.19,'11111222,11111222,11111222' 
TABS,ioos:station:wmo:42046:1,2009-05-04T14:30:00Z,27.8903,-94.0367,4.0,2.721506936,185.2708689,3.85,'11111222,11111222,11111222' 
TABS,ioos:station:wmo:42046:1,2009-05-04T15:00:00Z,27.8903,-94.0367,4.0,2.457905613,190.0756847,3.07,'11111222,11111222,11111222' 
TABS,ioos:station:wmo:42046:1,2009-05-04T15:30:00Z,27.8903,-94.0367,4.0,3.024780984,183.2220619,3.93,'11111222,11111222,11111222' 
TABS,ioos:station:wmo:42046:1,2009-05-04T16:00:00Z,27.8903,-94.0367,4.0,3.180062892,179.6398652,3.89,'11111222,11111222,11111222' 
TABS,ioos:station:wmo:42046:1,2009-05-04T16:30:00Z,27.8903,-94.0367,4.0,3.337933492,176.0491285,4.24,'11111222,11111222,11111222' 
TABS,ioos:station:wmo:42046:1,2009-05-04T17:00:00Z,27.8903,-94.0367,4.0,2.114190152,191.7353083,2.86,'11111222,11111222,11111222' 
TABS,ioos:station:wmo:42046:1,2009-05-04T17:30:00Z,27.8903,-94.0367,4.0,2.160092591,179.4697104,2.87,'11111222,11111222,11111222' 
TABS,ioos:station:wmo:42046:1,2009-05-04T18:00:00Z,27.8903,-94.0367,4.0,1.787316424,163.0860708,2.48,'11111222,11111222,11111222' 
TABS,ioos:station:wmo:42046:1,2009-05-04T18:30:00Z,27.8903,-94.0367,4.0,1.259245806,145.6792379,2.05,'11111222,11111222,11111222' 